| time (UTC) | temp F | wind direction | speed MPH | gust MPH | rain 1hr in | rain 24hr in | rain mn in | humidity % | barometer mb |
| 20260902230104 | 94 | 277 | 3.0 | 9.0 | 0.00 | 0.00 | 0.00 | 53 | 1010.2 |
| 20260902225604 | 94 | 284 | 3.0 | 12.0 | 0.00 | 0.00 | 0.00 | 52 | 1010.1 |
| 20260902225105 | 94 | 244 | 4.0 | 10.0 | 0.00 | 0.00 | 0.00 | 52 | 1010.1 |
| 20260902224604 | 94 | 211 | 5.0 | 9.0 | 0.00 | 0.00 | 0.00 | 51 | 1010.1 |
| 20260902224104 | 95 | 222 | 3.0 | 7.0 | 0.00 | 0.00 | 0.00 | 51 | 1010.1 |
| 20260902223104 | 95 | 227 | 2.0 | 7.0 | 0.00 | 0.00 | 0.00 | 50 | 1010.2 |
| 20260902222604 | 95 | 228 | 6.0 | 13.0 | 0.00 | 0.00 | 0.00 | 50 | 1010.2 |
| 20260902222105 | 95 | 227 | 6.0 | 13.0 | 0.00 | 0.00 | 0.00 | 49 | 1010.1 |
| 20260902221604 | 95 | 235 | 3.0 | 7.0 | 0.00 | 0.00 | 0.00 | 49 | 1010.1 |
| 20260902221104 | 95 | 221 | 6.0 | 15.0 | 0.00 | 0.00 | 0.00 | 48 | 1010.1 |
| 20260902220105 | 95 | 241 | 5.0 | 12.0 | 0.00 | 0.00 | 0.00 | 50 | 1010.2 |
| 20260902215104 | 95 | 195 | 3.0 | 10.0 | 0.00 | 0.00 | 0.00 | 50 | 1010.2 |
| 20260902214604 | 95 | 236 | 6.0 | 14.0 | 0.00 | 0.00 | 0.00 | 49 | 1010.3 |
| 20260902214104 | 95 | 252 | 7.0 | 14.0 | 0.00 | 0.00 | 0.00 | 49 | 1010.4 |
| 20260902213104 | 95 | 245 | 4.0 | 10.0 | 0.00 | 0.00 | 0.00 | 48 | 1010.4 |
| 20260902212604 | 95 | 239 | 6.0 | 14.0 | 0.00 | 0.00 | 0.00 | 48 | 1010.4 |
| 20260902212104 | 95 | 276 | 5.0 | 12.0 | 0.00 | 0.00 | 0.00 | 49 | 1010.4 |
| 20260902211604 | 96 | 224 | 8.0 | 18.0 | 0.00 | 0.00 | 0.00 | 48 | 1010.4 |
| 20260902211104 | 96 | 269 | 6.0 | 15.0 | 0.00 | 0.00 | 0.00 | 47 | 1010.4 |
| 20260902210604 | 96 | 196 | 5.0 | 14.0 | 0.00 | 0.00 | 0.00 | 48 | 1010.3 |
| 20260902210104 | 96 | 279 | 3.0 | 13.0 | 0.00 | 0.00 | 0.00 | 47 | 1010.5 |
| 20260902205604 | 96 | 209 | 6.0 | 13.0 | 0.00 | 0.00 | 0.00 | 47 | 1010.6 |
| 20260902205105 | 96 | 250 | 7.0 | 14.0 | 0.00 | 0.00 | 0.00 | 48 | 1010.6 |
| 20260902204604 | 96 | 229 | 6.0 | 18.0 | 0.00 | 0.00 | 0.00 | 48 | 1010.7 |
| 20260902204105 | 96 | 212 | 5.0 | 13.0 | 0.00 | 0.00 | 0.00 | 49 | 1010.7 |
| 20260902203604 | 96 | 247 | 6.0 | 13.0 | 0.00 | 0.00 | 0.00 | 48 | 1010.7 |
| 20260902203104 | 96 | 274 | 3.0 | 12.0 | 0.00 | 0.00 | 0.00 | 50 | 1010.7 |
| 20260902202604 | 96 | 182 | 5.0 | 12.0 | 0.00 | 0.00 | 0.00 | 50 | 1010.7 |
| 20260902202104 | 97 | 226 | 5.0 | 12.0 | 0.00 | 0.00 | 0.00 | 49 | 1010.9 |
| 20260902201604 | 97 | 238 | 5.0 | 10.0 | 0.00 | 0.00 | 0.00 | 48 | 1011.0 |
| 20260902200604 | 97 | 233 | 5.0 | 12.0 | 0.00 | 0.00 | 0.00 | 48 | 1011.2 |
| 20260902200104 | 97 | 232 | 4.0 | 13.0 | 0.00 | 0.00 | 0.00 | 49 | 1011.2 |
| 20260902195604 | 97 | 270 | 4.0 | 12.0 | 0.00 | 0.00 | 0.00 | 48 | 1011.2 |
| 20260902195104 | 97 | 260 | 5.0 | 13.0 | 0.00 | 0.00 | 0.00 | 49 | 1011.2 |
| 20260902194604 | 97 | 242 | 6.0 | 16.0 | 0.00 | 0.00 | 0.00 | 48 | 1011.3 |
| 20260902194104 | 97 | 285 | 7.0 | 13.0 | 0.00 | 0.00 | 0.00 | 48 | 1011.3 |
| 20260902193604 | 97 | 263 | 4.0 | 15.0 | 0.00 | 0.00 | 0.00 | 48 | 1011.4 |
| 20260902193104 | 97 | 306 | 5.0 | 13.0 | 0.00 | 0.00 | 0.00 | 47 | 1011.5 |
| 20260902192605 | 97 | 210 | 7.0 | 15.0 | 0.00 | 0.00 | 0.00 | 48 | 1011.6 |
| 20260902192104 | 97 | 226 | 3.0 | 10.0 | 0.00 | 0.00 | 0.00 | 48 | 1011.5 |
| 20260902191604 | 97 | 264 | 5.0 | 12.0 | 0.00 | 0.00 | 0.00 | 49 | 1011.4 |
| 20260902190604 | 97 | 226 | 4.0 | 10.0 | 0.00 | 0.00 | 0.00 | 49 | 1011.7 |
| 20260902190104 | 97 | 228 | 5.0 | 12.0 | 0.00 | 0.00 | 0.00 | 50 | 1011.7 |
| 20260902185104 | 96 | 210 | 4.0 | 10.0 | 0.00 | 0.00 | 0.00 | 50 | 1011.7 |
| 20260902184604 | 97 | 229 | 7.0 | 13.0 | 0.00 | 0.00 | 0.00 | 51 | 1011.7 |
| 20260902184105 | 96 | 197 | 4.0 | 14.0 | 0.00 | 0.00 | 0.00 | 52 | 1011.7 |
| 20260902183604 | 96 | 273 | 5.0 | 13.0 | 0.00 | 0.00 | 0.00 | 51 | 1011.8 |
| 20260902183104 | 96 | 243 | 5.0 | 13.0 | 0.00 | 0.00 | 0.00 | 52 | 1011.8 |
| 20260902182104 | 96 | 276 | 5.0 | 14.0 | 0.00 | 0.00 | 0.00 | 52 | 1012.0 |
| 20260902181605 | 96 | 275 | 5.0 | 12.0 | 0.00 | 0.00 | 0.00 | 50 | 1012.0 |
| 20260902181104 | 96 | 251 | 5.0 | 13.0 | 0.00 | 0.00 | 0.00 | 51 | 1012.1 |
| 20260902180604 | 96 | 271 | 4.0 | 8.0 | 0.00 | 0.00 | 0.00 | 51 | 1012.2 |
| 20260902180104 | 96 | 267 | 5.0 | 14.0 | 0.00 | 0.00 | 0.00 | 51 | 1012.3 |
| 20260902175604 | 96 | 237 | 6.0 | 10.0 | 0.00 | 0.00 | 0.00 | 52 | 1012.3 |
| 20260902173604 | 95 | 244 | 3.0 | 12.0 | 0.00 | 0.00 | 0.00 | 54 | 1012.4 |
| 20260902172604 | 95 | 209 | 3.0 | 8.0 | 0.00 | 0.00 | 0.00 | 55 | 1012.5 |
| 20260902172104 | 95 | 180 | 2.0 | 7.0 | 0.00 | 0.00 | 0.00 | 55 | 1012.6 |
| 20260902171605 | 95 | 232 | 6.0 | 14.0 | 0.00 | 0.00 | 0.00 | 54 | 1012.8 |
| 20260902171104 | 95 | 231 | 4.0 | 10.0 | 0.00 | 0.00 | 0.00 | 54 | 1012.8 |
| 20260902170604 | 95 | 237 | 5.0 | 9.0 | 0.00 | 0.00 | 0.00 | 54 | 1012.8 |
| 20260902170104 | 94 | 185 | 3.0 | 6.0 | 0.00 | 0.00 | 0.00 | 56 | 1012.8 |
| 20260902165604 | 94 | 305 | 2.0 | 6.0 | 0.00 | 0.00 | 0.00 | 57 | 1012.8 |
| 20260902165104 | 93 | 269 | 4.0 | 9.0 | 0.00 | 0.00 | 0.00 | 57 | 1012.8 |
| 20260902164604 | 93 | 229 | 5.0 | 9.0 | 0.00 | 0.00 | 0.00 | 57 | 1012.9 |
| 20260902164104 | 93 | 277 | 5.0 | 10.0 | 0.00 | 0.00 | 0.00 | 57 | 1013.0 |
| 20260902163604 | 93 | 261 | 3.0 | 6.0 | 0.00 | 0.00 | 0.00 | 59 | 1013.1 |
| 20260902163104 | 93 | 235 | 5.0 | 9.0 | 0.00 | 0.00 | 0.00 | 59 | 1013.1 |
| 20260902162604 | 92 | 219 | 4.0 | 9.0 | 0.00 | 0.00 | 0.00 | 59 | 1013.1 |
| 20260902162104 | 92 | 233 | 4.0 | 7.0 | 0.00 | 0.00 | 0.00 | 61 | 1013.2 |
| 20260902161604 | 92 | 257 | 2.0 | 5.0 | 0.00 | 0.00 | 0.00 | 61 | 1013.3 |
| 20260902161104 | 91 | 283 | 3.0 | 7.0 | 0.00 | 0.00 | 0.00 | 61 | 1013.4 |
| 20260902160603 | 91 | 251 | 2.0 | 6.0 | 0.00 | 0.00 | 0.00 | 63 | 1013.4 |
| 20260902160105 | 90 | 244 | 2.0 | 6.0 | 0.00 | 0.00 | 0.00 | 63 | 1013.4 |
| 20260902155604 | 90 | 255 | 3.0 | 8.0 | 0.00 | 0.00 | 0.00 | 63 | 1013.4 |
| 20260902155104 | 90 | 271 | 2.0 | 8.0 | 0.00 | 0.00 | 0.00 | 64 | 1013.4 |
| 20260902154604 | 90 | 265 | 3.0 | 9.0 | 0.00 | 0.00 | 0.00 | 63 | 1013.4 |
| 20260902154104 | 90 | 263 | 2.0 | 6.0 | 0.00 | 0.00 | 0.00 | 64 | 1013.4 |
| 20260902153604 | 89 | 253 | 1.0 | 10.0 | 0.00 | 0.00 | 0.00 | 65 | 1013.4 |
| 20260902153105 | 89 | 288 | 1.0 | 3.0 | 0.00 | 0.00 | 0.00 | 67 | 1013.4 |
| 20260902152604 | 89 | 263 | 2.0 | 7.0 | 0.00 | 0.00 | 0.00 | 68 | 1013.4 |
| 20260902151604 | 88 | 261 | 3.0 | 6.0 | 0.00 | 0.00 | 0.00 | 69 | 1013.4 |
| 20260902151104 | 87 | 222 | 3.0 | 7.0 | 0.00 | 0.00 | 0.00 | 70 | 1013.3 |
| 20260902150104 | 86 | 236 | 2.0 | 6.0 | 0.00 | 0.00 | 0.00 | 73 | 1013.3 |
| 20260902145604 | 86 | 240 | 2.0 | 3.0 | 0.00 | 0.00 | 0.00 | 74 | 1013.3 |
| 20260902144604 | 85 | 214 | 2.0 | 5.0 | 0.00 | 0.00 | 0.00 | 77 | 1013.2 |
| 20260902144104 | 84 | 226 | 3.0 | 7.0 | 0.00 | 0.00 | 0.00 | 78 | 1013.2 |
| 20260902143604 | 84 | 238 | 3.0 | 6.0 | 0.00 | 0.00 | 0.00 | 79 | 1013.3 |
| 20260902142104 | 83 | 235 | 0.0 | 0.0 | 0.00 | 0.00 | 0.00 | 83 | 1013.3 |
| 20260902141604 | 82 | 243 | 0.0 | 0.0 | 0.00 | 0.00 | 0.00 | 84 | 1013.3 |
| 20260902141103 | 82 | 228 | 0.0 | 0.0 | 0.00 | 0.00 | 0.00 | 85 | 1013.3 |
| 20260902140604 | 81 | 256 | 0.0 | 0.0 | 0.00 | 0.00 | 0.00 | 86 | 1013.2 |
| 20260902140104 | 81 | 240 | 0.0 | 0.0 | 0.00 | 0.00 | 0.00 | 87 | 1013.3 |
| 20260902135604 | 81 | 270 | 0.0 | 0.0 | 0.00 | 0.00 | 0.00 | 88 | 1013.3 |
| 20260902135103 | 80 | 189 | 0.0 | 0.0 | 0.00 | 0.00 | 0.00 | 89 | 1013.2 |
| 20260902134604 | 80 | 243 | 0.0 | 0.0 | 0.00 | 0.00 | 0.00 | 90 | 1013.3 |
| 20260902134103 | 79 | 247 | 0.0 | 0.0 | 0.00 | 0.00 | 0.00 | 91 | 1013.4 |
| 20260902133104 | 79 | 249 | 0.0 | 0.0 | 0.00 | 0.00 | 0.00 | 92 | 1013.3 |
| 20260902132104 | 78 | 243 | 0.0 | 0.0 | 0.00 | 0.00 | 0.00 | 92 | 1013.4 |
| 20260902131604 | 78 | 225 | 0.0 | 0.0 | 0.00 | 0.00 | 0.00 | 92 | 1013.4 |
| 20260902131104 | 78 | 245 | 0.0 | 0.0 | 0.00 | 0.00 | 0.00 | 93 | 1013.5 |
| 20260902130604 | 78 | 232 | 0.0 | 0.0 | 0.00 | 0.00 | 0.00 | 93 | 1013.5 |
| 20260902125604 | 77 | 238 | 0.0 | 0.0 | 0.00 | 0.00 | 0.00 | 93 | 1013.5 |
| 20260902125104 | 77 | 234 | 0.0 | 0.0 | 0.00 | 0.00 | 0.00 | 93 | 1013.5 |
| 20260902124605 | 77 | 194 | 0.0 | 0.0 | 0.00 | 0.00 | 0.00 | 93 | 1013.4 |
| 20260902124104 | 77 | 226 | 0.0 | 0.0 | 0.00 | 0.00 | 0.00 | 93 | 1013.4 |
| 20260902123604 | 77 | 242 | 0.0 | 0.0 | 0.00 | 0.00 | 0.00 | 93 | 1013.4 |
| 20260902123104 | 76 | 250 | 0.0 | 0.0 | 0.00 | 0.00 | 0.00 | 93 | 1013.4 |
| 20260902122104 | 76 | 243 | 0.0 | 0.0 | 0.00 | 0.00 | 0.00 | 93 | 1013.4 |
| 20260902121604 | 76 | 243 | 0.0 | 0.0 | 0.00 | 0.00 | 0.00 | 93 | 1013.3 |
| 20260902121104 | 76 | 251 | 0.0 | 0.0 | 0.00 | 0.00 | 0.00 | 93 | 1013.3 |
| 20260902120604 | 76 | 228 | 0.0 | 0.0 | 0.00 | 0.00 | 0.00 | 93 | 1013.2 |
| 20260902120104 | 76 | 215 | 0.0 | 0.0 | 0.00 | 0.00 | 0.00 | 93 | 1013.1 |
| 20260902115603 | 76 | 189 | 0.0 | 0.0 | 0.00 | 0.00 | 0.00 | 92 | 1013.0 |
| 20260902114604 | 76 | 189 | 0.0 | 0.0 | 0.00 | 0.00 | 0.00 | 92 | 1013.0 |
| 20260902114104 | 76 | 189 | 0.0 | 0.0 | 0.00 | 0.00 | 0.00 | 92 | 1013.0 |
| 20260902113604 | 76 | 189 | 0.0 | 0.0 | 0.00 | 0.00 | 0.00 | 92 | 1013.1 |
| 20260902112604 | 76 | 244 | 0.0 | 0.0 | 0.00 | 0.00 | 0.00 | 92 | 1013.2 |
| 20260902112103 | 76 | 244 | 0.0 | 0.0 | 0.00 | 0.00 | 0.00 | 92 | 1013.0 |
| 20260902111604 | 76 | 244 | 0.0 | 0.0 | 0.00 | 0.00 | 0.00 | 92 | 1013.2 |
| 20260902111103 | 76 | 244 | 0.0 | 0.0 | 0.00 | 0.00 | 0.00 | 92 | 1013.3 |
| 20260902110604 | 76 | 244 | 0.0 | 0.0 | 0.00 | 0.00 | 0.00 | 92 | 1013.3 |
| 20260902105603 | 76 | 255 | 0.0 | 0.0 | 0.00 | 0.00 | 0.00 | 92 | 1013.3 |
| 20260902105104 | 76 | 255 | 0.0 | 0.0 | 0.00 | 0.00 | 0.00 | 92 | 1013.3 |
| 20260902104604 | 76 | 255 | 0.0 | 0.0 | 0.00 | 0.00 | 0.00 | 92 | 1013.3 |
| 20260902104104 | 76 | 255 | 0.0 | 0.0 | 0.00 | 0.00 | 0.00 | 92 | 1013.4 |
| 20260902103603 | 76 | 255 | 0.0 | 0.0 | 0.00 | 0.00 | 0.00 | 92 | 1013.3 |
| 20260902103104 | 76 | 255 | 0.0 | 0.0 | 0.00 | 0.00 | 0.00 | 92 | 1013.0 |
| 20260902102604 | 76 | 255 | 0.0 | 0.0 | 0.00 | 0.00 | 0.00 | 92 | 1012.9 |
| 20260902101604 | 76 | 255 | 0.0 | 0.0 | 0.00 | 0.00 | 0.00 | 92 | 1012.9 |
| 20260902101104 | 77 | 255 | 0.0 | 0.0 | 0.00 | 0.00 | 0.00 | 92 | 1012.8 |
| 20260902100104 | 77 | 254 | 0.0 | 0.0 | 0.00 | 0.00 | 0.00 | 91 | 1012.9 |
| 20260902095604 | 77 | 254 | 0.0 | 0.0 | 0.00 | 0.00 | 0.00 | 91 | 1012.9 |
| 20260902095103 | 77 | 254 | 0.0 | 0.0 | 0.00 | 0.00 | 0.00 | 91 | 1012.9 |
| 20260902093604 | 77 | 256 | 0.0 | 0.0 | 0.00 | 0.00 | 0.00 | 91 | 1012.9 |
| 20260902093105 | 77 | 256 | 0.0 | 0.0 | 0.00 | 0.00 | 0.00 | 91 | 1012.9 |
| 20260902092604 | 77 | 249 | 0.0 | 0.0 | 0.00 | 0.00 | 0.00 | 91 | 1012.9 |
| 20260902092104 | 77 | 200 | 0.0 | 0.0 | 0.00 | 0.00 | 0.00 | 91 | 1012.9 |
| 20260902091604 | 77 | 229 | 0.0 | 0.0 | 0.00 | 0.00 | 0.00 | 91 | 1012.9 |
| 20260902090604 | 77 | 229 | 0.0 | 0.0 | 0.00 | 0.00 | 0.00 | 91 | 1012.8 |
| 20260902090104 | 77 | 194 | 0.0 | 0.0 | 0.00 | 0.00 | 0.00 | 91 | 1012.8 |
| 20260902085104 | 77 | 242 | 0.0 | 0.0 | 0.00 | 0.00 | 0.00 | 91 | 1012.9 |
| 20260902084603 | 77 | 242 | 0.0 | 0.0 | 0.00 | 0.00 | 0.00 | 91 | 1012.9 |
| 20260902084103 | 76 | 182 | 0.0 | 0.0 | 0.00 | 0.00 | 0.00 | 90 | 1012.8 |
| 20260902083604 | 76 | 221 | 0.0 | 0.0 | 0.00 | 0.00 | 0.00 | 90 | 1012.8 |
| 20260902083104 | 76 | 254 | 0.0 | 0.0 | 0.00 | 0.00 | 0.00 | 90 | 1012.8 |
| 20260902082103 | 76 | 236 | 0.0 | 0.0 | 0.00 | 0.00 | 0.00 | 90 | 1012.7 |
| 20260902081104 | 76 | 232 | 0.0 | 0.0 | 0.00 | 0.00 | 0.00 | 89 | 1012.6 |
| 20260902080603 | 76 | 232 | 0.0 | 0.0 | 0.00 | 0.00 | 0.00 | 89 | 1012.6 |
| 20260902080104 | 76 | 232 | 0.0 | 0.0 | 0.00 | 0.00 | 0.00 | 89 | 1012.7 |
| 20260902075604 | 76 | 232 | 0.0 | 0.0 | 0.00 | 0.00 | 0.00 | 89 | 1012.7 |
| 20260902075103 | 76 | 232 | 0.0 | 0.0 | 0.00 | 0.00 | 0.00 | 89 | 1012.7 |
| 20260902074604 | 76 | 232 | 0.0 | 0.0 | 0.00 | 0.00 | 0.00 | 89 | 1012.7 |
| 20260902074104 | 76 | 232 | 0.0 | 0.0 | 0.00 | 0.00 | 0.00 | 89 | 1012.7 |
| 20260902073604 | 75 | 232 | 0.0 | 0.0 | 0.00 | 0.00 | 0.00 | 88 | 1012.7 |
| 20260902073103 | 75 | 254 | 0.0 | 0.0 | 0.00 | 0.00 | 0.00 | 88 | 1012.7 |
| 20260902072603 | 75 | 254 | 0.0 | 0.0 | 0.00 | 0.00 | 0.00 | 88 | 1012.6 |
| 20260902072104 | 75 | 254 | 0.0 | 0.0 | 0.00 | 0.00 | 0.00 | 88 | 1012.6 |
| 20260902071604 | 75 | 254 | 0.0 | 0.0 | 0.00 | 0.00 | 0.00 | 88 | 1012.5 |
| 20260902071104 | 75 | 254 | 0.0 | 0.0 | 0.00 | 0.00 | 0.00 | 88 | 1012.5 |
| 20260902065604 | 75 | 254 | 0.0 | 0.0 | 0.00 | 0.00 | 0.00 | 87 | 1012.6 |
| 20260902065103 | 75 | 254 | 0.0 | 0.0 | 0.00 | 0.00 | 0.00 | 87 | 1012.5 |
| 20260902064604 | 75 | 254 | 0.0 | 0.0 | 0.00 | 0.00 | 0.00 | 87 | 1012.5 |
| 20260902064104 | 75 | 254 | 0.0 | 0.0 | 0.00 | 0.00 | 0.00 | 87 | 1012.5 |
| 20260902063605 | 75 | 254 | 0.0 | 0.0 | 0.00 | 0.00 | 0.00 | 87 | 1012.7 |
| 20260902062605 | 75 | 254 | 0.0 | 0.0 | 0.00 | 0.00 | 0.00 | 87 | 1012.9 |
| 20260902062105 | 75 | 254 | 0.0 | 0.0 | 0.00 | 0.00 | 0.00 | 87 | 1012.9 |
| 20260902061604 | 75 | 254 | 0.0 | 0.0 | 0.00 | 0.00 | 0.00 | 86 | 1012.9 |
| 20260902061104 | 75 | 254 | 0.0 | 0.0 | 0.00 | 0.00 | 0.00 | 86 | 1012.9 |
| 20260902060605 | 75 | 254 | 0.0 | 0.0 | 0.00 | 0.00 | 0.00 | 86 | 1013.1 |
| 20260902060104 | 75 | 254 | 0.0 | 0.0 | 0.00 | 0.00 | 0.00 | 86 | 1013.2 |
| 20260902055604 | 76 | 254 | 0.0 | 0.0 | 0.00 | 0.00 | 0.00 | 86 | 1013.3 |
| 20260902055105 | 76 | 254 | 0.0 | 0.0 | 0.00 | 0.00 | 0.00 | 86 | 1013.2 |
| 20260902054605 | 76 | 254 | 0.0 | 0.0 | 0.00 | 0.00 | 0.00 | 86 | 1013.3 |
| 20260902054104 | 76 | 254 | 0.0 | 0.0 | 0.00 | 0.00 | 0.00 | 86 | 1013.3 |
| 20260902053604 | 76 | 254 | 0.0 | 0.0 | 0.00 | 0.00 | 0.00 | 86 | 1013.3 |
| 20260902053105 | 76 | 254 | 0.0 | 0.0 | 0.00 | 0.00 | 0.00 | 86 | 1013.2 |
| 20260902052605 | 76 | 254 | 0.0 | 0.0 | 0.00 | 0.00 | 0.00 | 86 | 1013.0 |
| 20260902052104 | 76 | 254 | 0.0 | 0.0 | 0.00 | 0.00 | 0.00 | 86 | 1013.1 |
| 20260902051604 | 76 | 254 | 0.0 | 0.0 | 0.00 | 0.00 | 0.00 | 85 | 1013.0 |
| 20260902050104 | 76 | 254 | 0.0 | 0.0 | 0.00 | 0.00 | 0.00 | 85 | 1013.0 |
| 20260902045605 | 76 | 254 | 0.0 | 0.0 | 0.00 | 0.00 | 0.00 | 85 | 1013.0 |
| 20260902044605 | 76 | 254 | 0.0 | 0.0 | 0.00 | 0.00 | 0.00 | 85 | 1013.2 |
| 20260902044104 | 76 | 254 | 0.0 | 0.0 | 0.00 | 0.00 | 0.00 | 85 | 1013.2 |
| 20260902043604 | 76 | 254 | 0.0 | 0.0 | 0.00 | 0.00 | 0.00 | 85 | 1013.2 |
| 20260902043106 | 76 | 254 | 0.0 | 0.0 | 0.00 | 0.00 | 0.00 | 85 | 1013.0 |
| 20260902041604 | 77 | 254 | 0.0 | 0.0 | 0.00 | 0.00 | 0.00 | 84 | 1013.2 |
| 20260902041104 | 77 | 254 | 0.0 | 0.0 | 0.00 | 0.00 | 0.00 | 84 | 1013.2 |
| 20260902040604 | 77 | 254 | 0.0 | 0.0 | 0.00 | 0.00 | 0.00 | 83 | 1013.1 |
| 20260902035605 | 77 | 254 | 0.0 | 0.0 | 0.00 | 0.00 | 0.00 | 83 | 1013.2 |
| 20260902035105 | 77 | 254 | 0.0 | 0.0 | 0.00 | 0.00 | 0.00 | 83 | 1013.1 |
| 20260902034604 | 77 | 254 | 0.0 | 0.0 | 0.00 | 0.00 | 0.00 | 83 | 1013.0 |
| 20260902034105 | 77 | 254 | 0.0 | 0.0 | 0.00 | 0.00 | 0.00 | 82 | 1013.0 |
| 20260902033604 | 78 | 254 | 0.0 | 0.0 | 0.00 | 0.00 | 0.00 | 82 | 1012.9 |
| 20260902033105 | 78 | 254 | 0.0 | 0.0 | 0.00 | 0.00 | 0.00 | 82 | 1012.9 |
| 20260902032604 | 78 | 254 | 0.0 | 0.0 | 0.00 | 0.00 | 0.00 | 82 | 1012.9 |
| 20260902031104 | 78 | 254 | 0.0 | 0.0 | 0.00 | 0.00 | 0.00 | 82 | 1012.8 |
| 20260902030605 | 78 | 254 | 0.0 | 0.0 | 0.00 | 0.00 | 0.00 | 81 | 1012.8 |
| 20260902030105 | 78 | 254 | 0.0 | 0.0 | 0.00 | 0.00 | 0.00 | 81 | 1012.9 |
| 20260902025605 | 79 | 254 | 0.0 | 0.0 | 0.00 | 0.00 | 0.00 | 80 | 1012.8 |
| 20260902025105 | 79 | 254 | 0.0 | 0.0 | 0.00 | 0.00 | 0.00 | 80 | 1012.6 |
| 20260902024105 | 79 | 254 | 0.0 | 0.0 | 0.00 | 0.00 | 0.00 | 80 | 1012.6 |
| 20260902023605 | 79 | 254 | 0.0 | 0.0 | 0.00 | 0.00 | 0.00 | 80 | 1012.5 |
| 20260902023105 | 79 | 254 | 0.0 | 0.0 | 0.00 | 0.00 | 0.00 | 80 | 1012.6 |
| 20260902022605 | 80 | 254 | 0.0 | 0.0 | 0.00 | 0.00 | 0.00 | 80 | 1012.7 |
| 20260902021604 | 80 | 253 | 0.0 | 0.0 | 0.00 | 0.00 | 0.00 | 80 | 1012.7 |
| 20260902021104 | 80 | 250 | 0.0 | 0.0 | 0.00 | 0.00 | 0.00 | 80 | 1012.7 |
| 20260902020604 | 80 | 248 | 0.0 | 0.0 | 0.00 | 0.00 | 0.00 | 80 | 1012.7 |
| 20260902020104 | 80 | 246 | 0.0 | 0.0 | 0.00 | 0.00 | 0.00 | 80 | 1012.8 |
| 20260902015604 | 80 | 244 | 0.0 | 0.0 | 0.00 | 0.00 | 0.00 | 80 | 1012.9 |
| 20260902015105 | 80 | 244 | 0.0 | 0.0 | 0.00 | 0.00 | 0.00 | 80 | 1012.9 |
| 20260902014605 | 80 | 244 | 0.0 | 0.0 | 0.00 | 0.00 | 0.00 | 79 | 1013.0 |
| 20260902013604 | 81 | 239 | 0.0 | 0.0 | 0.00 | 0.00 | 0.00 | 79 | 1013.0 |
| 20260902013105 | 81 | 241 | 0.0 | 0.0 | 0.00 | 0.00 | 0.00 | 79 | 1013.1 |
| 20260902012604 | 81 | 229 | 0.0 | 0.0 | 0.00 | 0.00 | 0.00 | 79 | 1013.0 |
| 20260902012104 | 81 | 216 | 0.0 | 0.0 | 0.00 | 0.00 | 0.00 | 79 | 1013.0 |
| 20260902011605 | 81 | 215 | 0.0 | 0.0 | 0.00 | 0.00 | 0.00 | 78 | 1012.9 |
| 20260902011104 | 81 | 241 | 0.0 | 0.0 | 0.00 | 0.00 | 0.00 | 78 | 1012.9 |
| 20260902010605 | 81 | 228 | 0.0 | 0.0 | 0.00 | 0.00 | 0.00 | 78 | 1012.8 |
| 20260902010105 | 82 | 213 | 0.0 | 0.0 | 0.00 | 0.00 | 0.00 | 78 | 1012.7 |
| 20260902005604 | 82 | 240 | 0.0 | 0.0 | 0.00 | 0.00 | 0.00 | 78 | 1012.6 |
| 20260902005104 | 82 | 245 | 0.0 | 0.0 | 0.00 | 0.00 | 0.00 | 78 | 1012.5 |
| 20260902004105 | 82 | 236 | 0.0 | 0.0 | 0.00 | 0.00 | 0.00 | 77 | 1012.4 |
| 20260902003605 | 82 | 233 | 0.0 | 0.0 | 0.00 | 0.00 | 0.00 | 78 | 1012.4 |
| 20260902003105 | 82 | 238 | 0.0 | 0.0 | 0.00 | 0.00 | 0.00 | 77 | 1012.4 |
| 20260902002604 | 82 | 252 | 0.0 | 0.0 | 0.00 | 0.00 | 0.00 | 77 | 1012.4 |
| 20260902002105 | 82 | 233 | 0.0 | 0.0 | 0.00 | 0.00 | 0.00 | 77 | 1012.4 |
| 20260902001104 | 83 | 239 | 0.0 | 0.0 | 0.00 | 0.00 | 0.00 | 77 | 1012.4 |
| 20260902000605 | 83 | 247 | 0.0 | 0.0 | 0.00 | 0.00 | 0.00 | 76 | 1012.5 |
| 20260901235604 | 83 | 241 | 0.0 | 0.0 | 0.00 | 0.00 | 0.00 | 76 | 1012.5 |
| 20260901235104 | 83 | 250 | 0.0 | 0.0 | 0.00 | 0.00 | 0.00 | 75 | 1012.4 |
| 20260901234604 | 84 | 229 | 0.0 | 0.0 | 0.00 | 0.00 | 0.00 | 75 | 1012.4 |
| 20260901234105 | 84 | 252 | 0.0 | 0.0 | 0.00 | 0.00 | 0.00 | 75 | 1012.4 |
| 20260901233104 | 84 | 232 | 0.0 | 0.0 | 0.00 | 0.01 | 0.00 | 74 | 1012.4 |
| 20260901232605 | 85 | 233 | 0.0 | 0.0 | 0.00 | 0.01 | 0.00 | 74 | 1012.4 |
| 20260901232104 | 85 | 213 | 0.0 | 0.0 | 0.00 | 0.01 | 0.00 | 73 | 1012.4 |
| 20260901231104 | 86 | 232 | 0.0 | 0.0 | 0.00 | 0.01 | 0.00 | 72 | 1012.4 |
| 20260901230605 | 86 | 235 | 0.0 | 0.0 | 0.00 | 0.01 | 0.00 | 71 | 1012.5 |